This is the latest recevied weather packets stored in our database for station/object IU1OLT-5. If no packets are shown the sender has not sent any weather packets the latest 10 day(s).
| Time | Temp. | Humidity | Pressure | Rain* | Wind** | Luminosity | Snow |
|---|---|---|---|---|---|---|---|
| 1777830121 | 15.56° C | 70% | 1018.4 hPa | 0 mm | - | 28 W/m² | - |
| 1777829221 | 15.56° C | 72% | 1018.7 hPa | 0 mm | - | 41 W/m² | - |
| 1777828320 | 15.56° C | 69% | 1018.7 hPa | 0 mm | - | 58 W/m² | - |
| 1777827420 | 16.11° C | 67% | 1018.6 hPa | 0 mm | - | 75 W/m² | - |
| 1777826520 | 16.11° C | 62% | 1018.5 hPa | 0 mm | - | 94 W/m² | - |
| 1777825619 | 16.67° C | 61% | 1018.4 hPa | 0 mm | - | 115 W/m² | - |
| 1777824719 | 16.67° C | 54% | 1018.6 hPa | 0 mm | - | 120 W/m² | - |
| 1777823819 | 17.22° C | 57% | 1018.5 hPa | 0 mm | - | 157 W/m² | - |
| 1777822918 | 17.78° C | 62% | 1018.5 hPa | 0 mm | - | 207 W/m² | - |
| 1777822018 | 17.78° C | 57% | 1018.5 hPa | 0 mm | - | 283 W/m² | - |
| 1777821118 | 18.89° C | 62% | 1019 hPa | 0 mm | - | 339 W/m² | - |
| 1777820217 | 18.33° C | 63% | 1018.8 hPa | 0 mm | - | 391 W/m² | - |
| 1777819317 | 17.78° C | 69% | 1018.9 hPa | 0 mm | - | 355 W/m² | - |
| 1777817516 | 18.33° C | 65% | 1019.5 hPa | 0 mm | - | 440 W/m² | - |
| 1777816616 | 17.78° C | 70% | 1019.6 hPa | 0 mm | - | 370 W/m² | - |
| 1777815716 | 17.22° C | 72% | 1019.9 hPa | 0 mm | - | 335 W/m² | - |
| 1777814816 | 17.78° C | 76% | 1020.1 hPa | 0 mm | - | 386 W/m² | - |
| 1777813916 | 17.78° C | 74% | 1020.1 hPa | 0 mm | - | 395 W/m² | - |
| 1777813015 | 18.33° C | 70% | 1020.3 hPa | 0 mm | - | 409 W/m² | - |
| 1777812115 | 18.33° C | 70% | 1020.6 hPa | 0 mm | - | 434 W/m² | - |
| 1777811215 | 18.33° C | 70% | 1020.9 hPa | 0 mm | - | 395 W/m² | - |
| 1777810315 | 17.78° C | 72% | 1021.1 hPa | 0 mm | - | 438 W/m² | - |
| 1777809415 | 18.89° C | 72% | 1021.2 hPa | 0 mm | - | 647 W/m² | - |
| 1777808514 | 17.78° C | 73% | 1021 hPa | 0 mm | - | 758 W/m² | - |
| 1777807614 | 18.33° C | 68% | 1020.9 hPa | 0 mm | - | 753 W/m² | - |
* Rain latest hour (hover to see other rain measurements)
** Current wind speed in m/s (hover to see current wind gust speed)